Hourly Data Report for October 25, 2018

MONTREAL INTL A
QUEBEC
Current Station Operator: NAVCAN

45°28'14.000" N
73°44'27.000" W
36.00 m
7025251
71627
YUL

Download Data

Hourly Data (October 2018)
Hourly Data Report for October 25, 2018
TIME
LST
Temp Definition
°C
Dew Point Definition
°C
Rel Hum Definition
%
Precip. Amount Definition
mm

Wind Dir Definition
10's deg

Wind Spd Definition
km/h
Visibility Definition
km
Stn Press Definition
kPa
Hmdx Definition


Wind Chill Definition


Weather Definition


00:00 3.8 0.1 77   33 9 24.1 101.59     LegendNANA
01:00 3.4 -1.2 72   29 17 24.1 101.57     Mostly Cloudy
02:00 2.7 -1.9 71   29 14 24.1 101.54     LegendNANA
03:00 2.6 -2.3 70   29 25 24.1 101.52     LegendNANA
04:00 2.1 -2.9 70   30 18 24.1 101.51     Mostly Cloudy
05:00 1.6 -3.6 68   29 16 24.1 101.51     LegendNANA
06:00 1.5 -4.6 64   29 16 24.1 101.51     LegendNANA
07:00 1.5 -4.5 65   29 25 24.1 101.56     Cloudy
08:00 1.3 -4.9 63   28 25 24.1 101.56     LegendNANA
09:00 1.3 -6.0 58   29 21 24.1 101.55     LegendNANA
10:00 1.1 -6.8 56   30 23 24.1 101.54     Cloudy
11:00 1.2 -6.8 55   29 20 24.1 101.52     LegendNANA
12:00 1.1 -7.1 54   28 23 24.1 101.49     LegendNANA
13:00 1.6 -7.7 50   28 26 24.1 101.40     Cloudy
14:00 1.8 -8.0 48   31 21 24.1 101.37     LegendNANA
15:00 1.4 -8.6 47   30 29 48.3 101.38     LegendNANA
16:00 1.6 -8.3 48   29 20 48.3 101.37     Mostly Cloudy
17:00 0.9 -7.6 53   29 23 48.3 101.42     LegendNANA
18:00 1.1 -8.3 50   30 16 24.1 101.48     LegendNANA
19:00 1.2 -8.7 48   30 25 24.1 101.48     Cloudy
20:00 1.1 -8.6 48   31 11 24.1 101.49     LegendNANA
21:00 1.0 -7.7 53   30 10 24.1 101.49     LegendNANA
22:00 0.7 -7.8 53   29 10 24.1 101.47     Cloudy
23:00 0.6 -8.1 52   28 13 24.1 101.46     LegendNANA

Notes on Data Quality.

Legend

  • E = Estimated
  • M = Missing
  • NA = Not Available*
  • [empty] = Indicates an unobserved value
Date modified: